This is the latest recevied weather packets stored in our database for station/object N4RCT. If no packets are shown the sender has not sent any weather packets the latest 10 day(s).
| Time | Temp. | Humidity | Pressure | Rain* | Wind** | Luminosity | Snow |
|---|---|---|---|---|---|---|---|
| 1777831058 | 19.44° C | 46% | 1019.5 hPa | 0 mm | - | 764 W/m² | - |
| 1777830757 | 18.33° C | 45% | 1019.5 hPa | 0 mm | - | 746 W/m² | - |
| 1777830452 | 18.89° C | 44% | 1019.5 hPa | 0 mm | - | 756 W/m² | - |
| 1777830150 | 18.89° C | 46% | 1019.4 hPa | 0 mm | - | 766 W/m² | - |
| 1777829845 | 18.89° C | 47% | 1019.6 hPa | 0 mm | - | 766 W/m² | - |
| 1777829541 | 18.33° C | 53% | 1019.6 hPa | 0 mm | - | 754 W/m² | - |
| 1777829238 | 17.78° C | 51% | 1019.8 hPa | 0 mm | - | 739 W/m² | - |
| 1777828935 | 18.33° C | 50% | 1019.8 hPa | 0 mm | - | 742 W/m² | - |
| 1777828632 | 18.33° C | 49% | 1019.8 hPa | 0 mm | - | 698 W/m² | - |
| 1777828329 | 18.33° C | 49% | 1019.8 hPa | 0 mm | - | 705 W/m² | - |
| 1777828026 | 18.33° C | 52% | 1019.9 hPa | 0 mm | - | 739 W/m² | - |
| 1777827723 | 18.33° C | 49% | 1020 hPa | 0 mm | - | 742 W/m² | - |
| 1777827420 | 18.33° C | 51% | 1020.1 hPa | 0 mm | - | 727 W/m² | - |
| 1777827116 | 18.33° C | 52% | 1020.1 hPa | 0 mm | - | 745 W/m² | - |
| 1777826813 | 18.33° C | 50% | 1020.2 hPa | 0 mm | - | 776 W/m² | - |
| 1777826510 | 18.33° C | 51% | 1020.1 hPa | 0 mm | - | 777 W/m² | - |
| 1777826206 | 17.78° C | 51% | 1020.1 hPa | 0 mm | - | 771 W/m² | - |
| 1777825904 | 16.11° C | 53% | 1020.4 hPa | 0 mm | - | 760 W/m² | - |
| 1777825601 | 16.67° C | 52% | 1020.6 hPa | 0 mm | - | 763 W/m² | - |
| 1777825299 | 16.67° C | 50% | 1020.6 hPa | 0 mm | - | 772 W/m² | - |
| 1777824996 | 16.67° C | 51% | 1020.6 hPa | 0 mm | - | 768 W/m² | - |
| 1777824691 | 17.22° C | 58% | 1020.6 hPa | 0 mm | - | 757 W/m² | - |
| 1777824389 | 16.11° C | 56% | 1020.8 hPa | 0 mm | - | 750 W/m² | - |
| 1777824084 | 16.67° C | 59% | 1020.6 hPa | 0 mm | - | 749 W/m² | - |
| 1777823781 | 16.67° C | 57% | 1020.8 hPa | 0 mm | - | 762 W/m² | - |
* Rain latest hour (hover to see other rain measurements)
** Current wind speed in m/s (hover to see current wind gust speed)